[[{"header":{"parameterUnit":"m.s-1","parameterCategory":1,"la1":30.2991,"la2":30.254,"lo1":-89.0895,"lo2":-89.0444,"dy":0.0017,"dx":0.0017,"nx":28,"ny":28,"refTime":"2024-04-10T09:00:00:Z","depth":0,"parameterNumber":2,"parameterNumberName":"U-component_of_WINDS"},"data":[0,0,0,0,0,0,0,0,0,0,0,0,0,0,0,0,0,0,0,0,0,0,0,0,0,0,0,0,0,0,0,0,0,0,0,0,0,0,0,0,0,0,0,0,0,0,0,0,0,0,0,0,0,0,0,0,0,0,-8.4703,-8.4704,0,-8.479,-8.4791,-8.4792,-8.4744,-8.4741,-8.4739,-8.4737,-8.4818,-8.4822,-8.4826,0,0,0,0,0,0,0,0,0,0,0,0,0,-8.4491,-8.4495,-8.4703,-8.4704,-8.4705,-8.479,-8.4791,-8.4792,-8.4744,-8.4741,-8.4739,-8.4736,-8.4816,-8.4822,-8.4827,0,0,0,0,0,0,0,0,0,0,0,0,0,-8.4581,-8.4497,-8.4703,-8.4692,-8.4692,-8.4789,-8.4791,-8.4792,-8.4745,-8.4741,-8.4738,-8.4734,-8.4815,-8.4821,-8.4828,-8.4939,0,0,-8.4847,-8.485,0,0,0,0,0,0,0,0,-8.4576,-8.4589,-8.4692,-8.4693,-8.4693,-8.4753,-8.4746,-8.4841,-8.4746,-8.4724,-8.4737,-8.4733,-8.4799,-8.4806,-8.483,-8.4942,-8.4946,-8.4848,-8.4852,-8.4855,-8.4857,0,0,0,0,0,0,0,-8.457,-8.4585,-8.4737,-8.4694,-8.4694,-8.4681,-8.469,-8.4764,-8.478,-8.4726,-8.4723,-8.4734,-8.4798,-8.4824,-8.4831,-8.4947,-8.4848,-8.4854,-8.4858,-8.486,-8.5155,-8.5159,0,0,0,0,0,0,-8.4565,-8.458,-8.4734,-8.474,-8.4625,-8.4688,-8.4697,-8.4737,-8.4779,-8.4782,-8.4737,-8.4732,-8.4814,-8.4824,-8.4834,-8.4966,-8.4855,-8.4861,-8.4865,-8.5151,-8.5156,-8.516,0,0,0,0,0,0,-8.4561,-8.4579,-8.4731,-8.4659,-8.4677,-8.4695,-8.474,-8.474,-8.4766,-8.4788,-8.479,-8.4761,-8.4812,-8.4825,-8.4914,-8.4968,-8.4864,-8.487,-8.5147,-8.5153,-8.5158,-8.523,0,0,0,0,0,0,-8.4555,-8.4578,-8.4621,-8.4661,-8.4682,-8.481,-8.4743,-8.4745,-8.4778,-8.4772,-8.481,-8.4813,-8.481,-8.4904,-8.492,-8.4975,-8.4875,-8.5142,-8.515,-8.5156,-8.5223,-8.5238,-8.5251,0,0,0,0,0,-8.4547,-8.4636,-8.4624,-8.4643,-8.4736,-8.4814,-8.4825,-8.4822,-8.4783,-8.4826,-8.484,-8.4812,-8.4961,-8.4914,-8.4931,-8.4989,-8.5138,-8.5147,-8.5156,-8.5217,-8.5235,-8.525,0,0,0,0,0,0,-8.4599,-8.4641,-8.4627,-8.4732,-8.477,-8.4806,-8.4859,-8.4842,-8.4889,-8.4881,-8.4873,-8.4882,-8.4974,-8.4991,-8.4938,-8.5099,-8.5043,-8.5056,-8.5083,-8.5101,-8.5115,-8.5106,-8.488,0,0,0,0,0,-8.4623,-8.4685,-8.4718,-8.4807,-8.4827,-8.4841,-8.4874,-8.4869,-8.4907,-8.4922,-8.4942,-8.4978,-8.5033,-8.5069,-8.512,-8.5228,-8.5234,-8.5276,-8.529,-8.5301,-8.531,-8.5367,-8.5386,-8.5189,-8.5189,-8.5189,0,0,-8.4672,-8.4703,-8.4741,-8.4818,-8.4847,-8.4909,-8.4854,-8.4921,-8.4966,-8.4931,-8.5015,-8.5033,-8.5073,-8.5171,-8.5215,-8.5188,-8.5368,-8.5313,-8.5321,-8.5324,-8.5378,-8.5397,-8.5413,-8.5195,-8.5194,-8.5193,0,0,-8.4792,-8.4824,-8.4901,-8.4932,-8.4978,-8.4987,-8.5006,-8.5046,-8.5056,-8.5143,-8.5118,-8.5171,-8.5266,-8.5296,-8.5323,-8.546,-8.5435,-8.5478,-8.5547,-8.5603,-8.5618,-8.5632,-8.5678,-8.5695,-8.5488,-8.5488,-8.5488,0,-8.4846,-8.494,-8.4942,-8.5012,-8.5046,-8.5022,-8.5099,-8.5129,-8.5188,-8.5211,-8.5181,-8.5301,-8.5327,-8.5431,-8.5465,-8.5489,-8.5508,-8.547,-8.5617,-8.563,-8.5643,-8.5686,-8.5704,-8.5493,-8.5492,-8.5492,-8.5491,0,-8.5003,-8.507,-8.5126,-8.5188,-8.5229,-8.5302,-8.5313,-8.5354,-8.5348,-8.536,-8.5448,-8.5479,-8.5536,-8.5562,-8.5555,-8.5666,-8.5647,-8.5618,-8.556,-8.5666,-8.5707,-8.5724,-8.5499,-8.5498,-8.5496,-8.5495,0,0,-8.5151,-8.5217,-8.5238,-8.5266,-8.5317,-8.5367,-8.544,-8.55,-8.5534,-8.5578,-8.5636,-8.572,-8.5694,-8.5725,-8.5722,-8.5772,-8.5876,-8.5736,-8.5736,-8.5757,-8.5998,-8.6016,-8.6036,-8.5863,-8.5866,-8.5868,-8.5993,0,-8.5272,-8.5402,-8.5407,-8.5524,-8.5584,-8.5565,-8.5629,-8.5666,-8.5681,-8.5733,-8.5748,-8.5807,-8.5769,-8.5788,-8.5837,-8.5853,-8.5923,-8.5845,-8.5913,-8.5916,-8.5899,-8.6057,-8.6077,-8.6192,-8.6009,-8.6012,-8.6014,0,-8.5429,-8.5481,-8.5604,-8.5649,-8.5674,-8.5731,-8.5787,-8.5839,-8.5881,-8.5888,-8.5926,-8.5917,-8.599,-8.5936,-8.6035,-8.5981,-8.6011,-8.6024,-8.6028,-8.603,-8.5967,-8.6059,-8.623,-8.6245,-8.604,-8.6038,-8.6036,0,-8.552,-8.5622,-8.5709,-8.5734,-8.5789,-8.5829,-8.5853,-8.5893,-8.5929,-8.5978,-8.6001,-8.6058,-8.6087,-8.613,-8.6136,-8.6096,-8.6235,-8.6181,-8.624,-8.624,-8.6265,-8.6262,-8.6438,-8.6293,-8.6292,-8.6292,-8.6292,0,-8.5651,-8.5727,-8.5751,-8.5803,-8.5888,-8.5894,-8.5977,-8.5998,-8.6035,-8.609,-8.6078,-8.613,-8.6137,-8.619,-8.6195,-8.6276,-8.629,-8.6296,-8.6295,-8.6294,-8.6293,-8.6309,-8.6299,-8.6297,-8.6296,-8.6295,-8.6294,0,-8.5765,-8.5785,-8.5878,-8.5925,-8.5938,-8.5998,-8.6036,-8.6086,-8.6103,-8.6173,-8.619,-8.6213,-8.6276,-8.6288,-8.6361,-8.6365,-8.646,-8.6453,-8.6445,-8.6443,-8.6499,-8.6492,-8.6687,-8.6712,-8.6555,-8.6557,-8.6558,0,-8.5845,-8.5903,-8.5958,-8.5995,-8.6023,-8.6084,-8.6122,-8.6132,-8.6171,-8.6227,-8.627,-8.6332,-8.6382,-8.6483,-8.6505,-8.6561,-8.6553,-8.6618,-8.6561,-8.6558,-8.6549,-8.6544,-8.6549,-8.6627,-8.6628,-8.663,-8.6631,0,-8.5983,-8.5991,-8.6048,-8.6109,-8.6155,-8.6203,-8.6248,-8.6279,-8.6296,-8.6341,-8.6406,-8.6446,-8.6523,-8.6583,-8.6641,-8.6664,-8.6649,-8.665,-8.6666,-8.6662,-8.6654,-8.6655,-8.647,-8.6644,-8.6642,-8.6642,-8.6641,-8.664,-8.608,-8.613,-8.6178,-8.6241,-8.6278,-8.6321,-8.6371,-8.6395,-8.6451,-8.6515,-8.6519,-8.659,-8.6633,-8.6708,-8.6736,-8.679,-8.6769,-8.6793,-8.6798,-8.6802,-8.6806,-8.6651,-8.6801,-8.6801,-8.68,-8.68,-8.68,0,-8.6214,-8.6245,-8.6304,-8.637,-8.642,-8.6408,-8.6458,-8.65,-8.6563,-8.6606,-8.6657,-8.6733,-8.6793,-8.6823,-8.6882,-8.692,-8.6915,-8.6934,-8.6929,-8.6934,-8.6823,-8.6802,-8.6938,-8.6938,-8.6938,-8.6938,-8.6938,-8.6938,-8.629,-8.6375,-8.6389,-8.6492,-8.6522,-8.6594,-8.6623,-8.6663,-8.6697,-8.6783,-8.6834,-8.6855,-8.6892,-8.6955,-8.7009,-8.7016,-8.7036,-8.7059,-8.7062,-8.6956,-8.6942,-8.6928,-8.6908,-8.7064,-8.7064,-8.7168,-8.7169,-8.717]},{"header":{"parameterUnit":"m.s-1","parameterCategory":1,"la1":30.2991,"la2":30.254,"lo1":-89.0895,"lo2":-89.0444,"dy":0.0017,"dx":0.0017,"nx":28,"ny":28,"refTime":"2024-04-10T09:00:00:Z","depth":0,"parameterNumber":3,"parameterNumberName":"V-component_of_WINDS"},"data":[0,0,0,0,0,0,0,0,0,0,0,0,0,0,0,0,0,0,0,0,0,0,0,0,0,0,0,0,0,0,0,0,0,0,0,0,0,0,0,0,0,0,0,0,0,0,0,0,0,0,0,0,0,0,0,0,0,0,6.077,6.0771,0,6.0806,6.0807,6.0807,6.0724,6.0721,6.0719,6.0716,6.0752,6.0755,6.0759,0,0,0,0,0,0,0,0,0,0,0,0,0,6.063,6.0633,6.077,6.0771,6.0771,6.0806,6.0807,6.0807,6.0725,6.0721,6.0718,6.0715,6.0751,6.0755,6.0759,0,0,0,0,0,0,0,0,0,0,0,0,0,6.0681,6.0634,6.077,6.0734,6.0731,6.0806,6.0807,6.0807,6.0725,6.0721,6.0717,6.0714,6.075,6.0755,6.076,6.0871,0,0,6.0775,6.0777,0,0,0,0,0,0,0,0,6.0678,6.0686,6.0739,6.0737,6.0734,6.0757,6.077,6.0828,6.0726,6.0728,6.0716,6.0712,6.0757,6.0761,6.0776,6.0872,6.0874,6.0776,6.0779,6.0781,6.0782,0,0,0,0,0,0,0,6.0675,6.0684,6.0784,6.074,6.0737,6.0716,6.0719,6.0781,6.0764,6.0727,6.0721,6.0727,6.0754,6.0772,6.0777,6.0874,6.0776,6.078,6.0783,6.0785,6.1065,6.1069,0,0,0,0,0,0,6.0676,6.0682,6.0783,6.0786,6.0696,6.0722,6.0725,6.0753,6.0763,6.0761,6.073,6.0723,6.0765,6.0771,6.0778,6.091,6.0781,6.0786,6.0789,6.1061,6.1066,6.1071,0,0,0,0,0,0,6.0673,6.0686,6.0782,6.0732,6.0743,6.0729,6.0761,6.0756,6.0773,6.0765,6.0762,6.0751,6.0762,6.077,6.0849,6.091,6.0788,6.0793,6.1055,6.1062,6.1068,6.1174,0,0,0,0,0,0,6.067,6.0686,6.0727,6.0734,6.0746,6.0853,6.0765,6.076,6.0782,6.0773,6.0784,6.0782,6.076,6.0841,6.0854,6.0915,6.0797,6.105,6.1058,6.1066,6.1165,6.1184,6.1199,0,0,0,0,0,6.0665,6.0755,6.073,6.0743,6.0798,6.0856,6.0863,6.0836,6.0788,6.083,6.0825,6.0781,6.0901,6.085,6.0863,6.0927,6.1046,6.1056,6.1065,6.1158,6.118,6.1199,0,0,0,0,0,0,6.0756,6.0755,6.0727,6.0822,6.084,6.0842,6.0895,6.086,6.0892,6.0882,6.0847,6.085,6.0935,6.0938,6.0882,6.1035,6.0965,6.0978,6.1031,6.1052,6.1069,6.1067,6.0801,0,0,0,0,0,6.0787,6.0834,6.0831,6.0915,6.0926,6.0909,6.0933,6.0911,6.0928,6.0935,6.0935,6.0954,6.0995,6.1023,6.1061,6.1165,6.1167,6.1215,6.1232,6.1246,6.1258,6.1315,6.1337,6.1103,6.1103,6.1102,0,0,6.0851,6.0857,6.0889,6.0934,6.0945,6.0995,6.0916,6.0972,6.1009,6.0943,6.1018,6.1019,6.1037,6.1129,6.1169,6.1134,6.1323,6.1258,6.127,6.1274,6.1327,6.135,6.1369,6.1109,6.1108,6.1107,0,0,6.0995,6.1004,6.1075,6.1089,6.1107,6.1096,6.1113,6.1121,6.112,6.1194,6.1146,6.119,6.1262,6.1277,6.1294,6.1446,6.1407,6.1459,6.1548,6.1604,6.1623,6.1639,6.1695,6.1715,6.147,6.1471,6.1471,0,6.1073,6.1147,6.1117,6.1177,6.1199,6.1142,6.1215,6.1229,6.1259,6.1275,6.1235,6.1326,6.1333,6.143,6.1467,6.1482,6.1502,6.1458,6.1622,6.1638,6.1653,6.1706,6.1727,6.1477,6.1476,6.1475,6.1475,0,6.1243,6.1295,6.1351,6.1383,6.141,6.1477,6.1457,6.1488,6.1464,6.1457,6.1534,6.1542,6.1581,6.1602,6.1578,6.1695,6.1673,6.1628,6.1557,6.1682,6.1732,6.1751,6.1486,6.1484,6.1482,6.148,0,0,6.1445,6.146,6.1481,6.1495,6.1512,6.1552,6.1616,6.1655,6.1684,6.1706,6.176,6.1823,6.1783,6.1802,6.178,6.1829,6.1951,6.1778,6.1778,6.1812,6.2082,6.2117,6.2141,6.1925,6.1929,6.1932,6.2082,0,6.1589,6.17,6.1675,6.1785,6.1834,6.1781,6.1837,6.1854,6.1849,6.189,6.1884,6.193,6.1872,6.1884,6.193,6.1926,6.2005,6.1915,6.1976,6.1978,6.1975,6.2167,6.2203,6.2345,6.21,6.2104,6.2106,0,6.1771,6.1803,6.1918,6.1928,6.1948,6.1999,6.2034,6.2073,6.2091,6.2084,6.2107,6.2075,6.214,6.2067,6.2156,6.2095,6.2118,6.212,6.2125,6.2131,6.2051,6.218,6.2389,6.2411,6.2136,6.2133,6.2131,0,6.191,6.198,6.2059,6.2072,6.2086,6.2123,6.2131,6.2145,6.2171,6.2201,6.2217,6.2254,6.2275,6.2304,6.2284,6.2233,6.2377,6.2302,6.2374,6.2375,6.2408,6.2407,6.2626,6.242,6.242,6.242,6.2419,0,6.2074,6.2147,6.2121,6.217,6.225,6.2221,6.2301,6.2302,6.2316,6.2364,6.232,6.2366,6.2335,6.2379,6.2363,6.244,6.2449,6.2446,6.2441,6.2451,6.2452,6.2467,6.2458,6.2425,6.2424,6.2423,6.2422,0,6.2243,6.2229,6.2311,6.2318,6.2321,6.238,6.2386,6.2431,6.2424,6.2485,6.2498,6.2486,6.2535,6.2517,6.2569,6.2559,6.2658,6.2639,6.2653,6.2648,6.2722,6.2717,6.2961,6.2992,6.2764,6.2767,6.2768,0,6.235,6.2405,6.2418,6.2448,6.2459,6.2506,6.2533,6.2506,6.2535,6.2561,6.2604,6.2649,6.2685,6.2766,6.2762,6.2802,6.2785,6.2868,6.2791,6.28,6.2789,6.2787,6.2793,6.2884,6.2887,6.2889,6.2891,0,6.2542,6.2533,6.2573,6.2611,6.2644,6.2673,6.2697,6.2724,6.2699,6.2734,6.2784,6.2812,6.2866,6.2912,6.2949,6.2956,6.2921,6.2915,6.2934,6.2946,6.2952,6.2952,6.2697,6.291,6.2908,6.2906,6.2905,6.2905,6.2685,6.2732,6.275,6.2796,6.2812,6.2837,6.288,6.2878,6.292,6.2963,6.2944,6.3003,6.302,6.3066,6.3078,6.3124,6.3092,6.3119,6.3127,6.3134,6.3145,6.2943,6.313,6.313,6.3129,6.3129,6.3128,0,6.2877,6.2885,6.2928,6.2965,6.3002,6.2965,6.2991,6.3024,6.3077,6.3096,6.3133,6.3191,6.3236,6.3236,6.3278,6.3315,6.33,6.3327,6.3325,6.3328,6.317,6.3151,6.3339,6.3339,6.3339,6.3339,6.3339,6.3339,6.2981,6.306,6.3053,6.314,6.3147,6.3205,6.3224,6.3246,6.3262,6.333,6.3368,6.3367,6.338,6.3422,6.3463,6.3461,6.348,6.3514,6.3507,6.336,6.3339,6.3319,6.3301,6.3518,6.3518,6.3661,6.3663,6.3664]}]]